1497045600.62,50516,20.94,74166.3,2.29,-27.55,-27.93,0,*79
1497045601.87,50517,20.94,74164.5,2.27,-27.23,-27.61,0,*7A
1497045603.08,50518,20.94,74166.5,2.27,-27.07,-27.51,0,*70
1497045604.3,50519,20.94,74168.0,2.29,-27.07,-27.55,0,*7B
1497045605.53,50520,20.94,74164.3,2.29,-27.03,-27.55,0,*75
1497045606.75,50521,20.94,74166.3,2.27,-27.23,-27.77,0,*78
1497045608.02,50522,20.94,74166.3,2.29,-27.35,-27.61,0,*75
1497045609.27,50523,20.94,74168.3,2.29,-27.07,-27.45,0,*73
1497045610.52,50524,20.94,74166.3,2.29,-27.07,-27.39,0,*7F
1497045611.73,50525,20.94,74168.3,2.27,-27.29,-27.67,0,*77
1497045612.98,50526,20.94,74168.5,2.29,-27.55,-28.05,0,*7A
1497045614.23,50527,20.94,74166.3,2.29,-27.23,-27.77,0,*70
1497045615.48,50528,20.94,74166.3,2.29,-27.39,-27.89,0,*75
1497045616.72,50529,20.94,74170.3,2.29,-27.23,-27.71,0,*78
1497045617.97,50530,20.94,74166.0,2.29,-27.03,-27.35,0,*72
1497045619.19,50531,20.94,74166.3,2.27,-27.13,-27.45,0,*7B
1497045620.44,50532,20.94,74164.5,2.29,-27.45,-27.93,0,*7E
1497045621.69,50533,20.94,74166.0,2.29,-27.35,-27.77,0,*72
1497045622.94,50534,20.94,74166.8,2.33,-27.23,-27.71,0,*7F
1497045624.16,50535,20.94,74166.8,2.27,-27.23,-27.77,0,*7D
1497045625.43,50536,20.94,74168.5,2.29,-27.23,-27.61,0,*77
1497045626.69,50537,20.94,74164.3,2.27,-26.97,-27.39,0,*7B
1497045627.92,50538,20.94,74166.0,2.27,-27.23,-27.77,0,*70
1497045629.16,50539,20.94,74170.5,2.29,-27.39,-27.77,0,*74
1497045630.41,50540,20.94,74164.5,2.29,-27.35,-27.77,0,*76
1497045631.65,50541,20.94,74166.0,2.29,-27.35,-27.77,0,*77
1497045632.89,50542,20.94,74166.3,2.29,-27.35,-27.71,0,*72
1497045634.12,50543,20.94,74164.8,2.27,-27.23,-27.67,0,*7D
1497045635.37,50544,20.94,74166.5,2.29,-27.03,-27.45,0,*76
1497045636.61,50545,20.94,74166.0,2.29,-27.07,-27.45,0,*73
1497045637.84,50546,20.94,74166.5,2.29,-27.07,-27.55,0,*71
1497045639.06,50547,20.94,74164.8,2.29,-27.07,-27.55,0,*70
1497045640.31,50548,20.94,74166.0,2.29,-27.23,-27.89,0,*78
1497045641.55,50549,20.94,74164.0,2.29,-27.35,-27.77,0,*7F
1497045642.8,50550,20.94,74164.0,2.29,-27.23,-27.71,0,*76
1497045644.05,50551,20.94,74166.0,2.29,-27.55,-28.05,0,*7A
1497045645.33,50552,20.94,74170.0,2.29,-27.45,-28.05,0,*78
1497045646.58,50553,20.94,74168.5,2.29,-27.55,-28.05,0,*78
1497045647.84,50554,20.94,74166.3,2.27,-27.61,-27.99,0,*7C
1497045649.09,50555,20.94,74166.3,2.29,-27.39,-27.89,0,*7F
1497045650.32,50556,20.94,74166.3,2.27,-27.45,-27.93,0,*72
1497045651.55,50557,20.94,74166.8,2.27,-27.45,-27.93,0,*73
1497045652.8,50558,20.94,74164.8,2.29,-27.55,-28.09,0,*7F
1497045654.08,50559,20.94,74164.0,2.29,-27.61,-28.09,0,*79
1497045655.3,50560,20.94,74166.0,2.27,-27.51,-28.09,0,*7E
1497045656.53,50561,20.94,74168.0,2.27,-27.51,-27.99,0,*79
1497045657.76,50562,20.94,74164.8,2.27,-27.51,-27.99,0,*7A
1497045659.03,50563,20.94,74168.3,2.27,-27.61,-27.99,0,*78
1497045660.27,50564,20.94,74164.5,2.29,-27.39,-27.77,0,*7C
1497045661.5,50565,20.94,74164.8,2.27,-27.67,-28.09,0,*7E
1497045662.73,50566,20.94,74164.3,2.27,-27.39,-27.93,0,*7A
1497045663.95,50567,20.94,74164.0,2.25,-27.13,-27.51,0,*7F
1497045665.2,50568,20.94,74166.0,2.25,-27.39,-27.93,0,*76
1497045666.46,50569,20.94,74162.8,2.25,-27.51,-27.99,0,*73
1497045667.71,50570,20.94,74164.8,2.25,-27.51,-27.99,0,*7B
1497045668.99,50571,20.94,74166.3,2.25,-27.45,-28.09,0,*79
1497045670.27,50572,20.94,74164.8,2.25,-27.39,-27.83,0,*7C
1497045671.5,50573,20.94,74166.8,2.23,-27.67,-28.05,0,*71
1497045672.78,50574,20.94,74168.0,2.25,-27.61,-28.09,0,*7A
1497045674.07,50575,20.94,74164.3,2.25,-27.61,-28.09,0,*7B
1497045675.32,50576,20.94,74166.8,2.25,-27.67,-28.09,0,*7E
1497045676.59,50577,20.94,74166.8,2.25,-27.61,-28.15,0,*74
1497045677.84,50578,20.94,74166.8,2.25,-27.51,-27.99,0,*73
1497045679.1,50579,20.94,74166.5,2.25,-27.51,-28.09,0,*74
1497045680.32,50580,20.94,74166.3,2.23,-27.55,-28.05,0,*7C
1497045681.58,50581,20.94,74166.0,2.23,-27.45,-27.99,0,*76
1497045682.8,50582,20.94,74166.3,2.23,-27.51,-28.05,0,*7A
1497045684.03,50583,20.94,74166.0,2.23,-27.45,-27.89,0,*75
1497045685.24,50584,20.94,74166.0,2.23,-27.67,-28.15,0,*78
1497045686.44,50585,20.94,74164.5,2.23,-27.55,-28.15,0,*78
1497045687.67,50586,20.94,74164.0,2.23,-27.55,-28.05,0,*7A
1497045688.93,50587,20.94,74166.5,2.21,-27.55,-27.99,0,*73
1497045690.18,50588,20.94,74166.0,2.21,-27.55,-28.05,0,*76
1497045691.38,50589,20.94,74166.0,2.23,-27.51,-27.89,0,*7A
1497045692.61,50590,20.94,74164.5,2.23,-27.35,-27.71,0,*77
1497045693.83,50591,20.94,74160.8,2.23,-27.51,-27.83,0,*79
1497045695.06,50592,20.94,74164.5,2.23,-27.67,-28.21,0,*78
1497045696.29,50593,20.94,74164.0,2.23,-27.55,-28.05,0,*7E
1497045697.52,50594,20.94,74162.8,2.23,-27.55,-28.05,0,*79
1497045698.74,50595,20.94,74166.8,2.19,-27.55,-28.09,0,*7D
1497045699.98,50596,20.94,74166.8,2.21,-27.67,-28.15,0,*79
1497045701.21,50597,20.94,74164.3,2.19,-27.55,-28.21,0,*75
1497045702.43,50598,20.94,74166.3,2.19,-27.39,-27.89,0,*7D
1497045703.66,50599,20.94,74166.0,2.19,-27.71,-28.09,0,*77
1497045704.89,50600,20.94,74166.3,2.19,-27.51,-28.05,0,*7A
1497045706.12,50601,20.94,74166.3,2.21,-27.67,-28.15,0,*74
1497045707.32,50602,20.94,74166.3,2.19,-27.51,-27.89,0,*73
1497045708.58,50603,20.94,74168.3,2.19,-27.61,-28.21,0,*7C
1497045709.81,50604,20.94,74166.0,2.19,-27.39,-27.93,0,*70
1497045711.01,50605,20.94,74166.8,2.19,-27.51,-27.93,0,*7F
1497045712.23,50606,20.94,74164.5,2.19,-27.71,-28.21,0,*78
1497045713.46,50607,20.94,74166.5,2.19,-27.39,-27.89,0,*78
1497045714.68,50608,20.94,74164.0,2.19,-27.39,-27.89,0,*77
1497045715.88,50609,20.94,74162.3,2.19,-27.55,-27.93,0,*77
1497045717.14,50610,20.94,74162.8,2.19,-27.61,-28.09,0,*74
1497045718.36,50611,20.94,74166.8,2.19,-27.35,-27.77,0,*72
1497045719.61,50612,20.94,74162.8,2.17,-27.45,-27.93,0,*72
1497045720.9,50613,20.94,74164.5,2.17,-27.61,-27.99,0,*7F
1497045722.18,50614,20.94,74162.5,2.17,-27.61,-28.09,0,*7E
1497045723.44,50615,20.94,74164.3,2.17,-27.55,-28.09,0,*78
1497045724.71,50616,20.94,74160.5,2.17,-27.39,-27.83,0,*7C
1497045725.97,50617,20.94,74164.3,2.15,-27.61,-28.09,0,*7F
1497045727.22,50618,20.94,74164.3,2.17,-27.39,-27.93,0,*73
1497045728.44,50619,20.94,74166.5,2.17,-27.55,-27.93,0,*78
1497045729.69,50620,20.94,74160.5,2.15,-27.39,-27.83,0,*7B
1497045730.97,50621,20.94,74166.3,2.17,-27.45,-27.83,0,*73
1497045732.2,50622,20.94,74164.5,2.15,-27.45,-27.67,0,*78
1497045733.48,50623,20.94,74164.5,2.17,-27.61,-28.09,0,*7A
1497045734.76,50624,20.94,74166.3,2.17,-27.45,-27.83,0,*76
1497045735.98,50625,20.94,74164.5,2.17,-27.55,-27.93,0,*77
1497045737.23,50626,20.94,74164.8,2.15,-27.39,-27.83,0,*7D
1497045738.51,50627,20.94,74166.8,2.17,-27.39,-27.83,0,*7E
1497045739.76,50628,20.94,74164.0,2.17,-27.39,-27.93,0,*70
1497045740.99,50629,20.94,74166.0,2.15,-27.55,-27.99,0,*73
1497045742.24,50630,20.94,74164.5,2.17,-27.55,-27.83,0,*72
1497045743.46,50631,20.94,74162.8,2.15,-27.39,-27.93,0,*7A
1497045744.68,50632,20.94,74164.3,2.17,-27.55,-27.93,0,*71
1497045745.9,50633,20.94,74162.3,2.15,-27.23,-27.77,0,*79
1497045747.16,50634,20.94,74164.8,2.15,-27.45,-27.99,0,*7E
1497045748.44,50635,20.94,74162.8,2.17,-27.45,-27.83,0,*76
1497045749.64,50636,20.94,74166.8,2.15,-27.29,-27.77,0,*76
1497045750.87,50637,20.94,74164.5,2.17,-27.29,-27.77,0,*75
1497045752.1,50638,20.94,74164.0,2.15,-27.23,-27.67,0,*73
1497045753.35,50639,20.94,74164.0,2.17,-27.45,-27.93,0,*7B
1497045754.6,50640,20.94,74164.3,2.15,-27.45,-27.83,0,*76
1497045755.85,50641,20.94,74160.8,2.15,-27.39,-27.83,0,*7C
1497045757.09,50642,20.94,74164.5,2.15,-27.39,-27.83,0,*7F
1497045758.34,50643,20.94,74166.3,2.15,-27.39,-27.83,0,*7E
1497045759.6,50644,20.94,74162.3,2.17,-27.39,-27.67,0,*71
1497045760.85,50645,20.94,74168.0,2.15,-27.39,-27.83,0,*78
1497045762.1,50646,20.94,74164.0,2.15,-27.45,-27.99,0,*7B
1497045763.32,50647,20.94,74164.0,2.15,-27.45,-27.93,0,*70
1497045764.53,50648,20.94,74164.3,2.15,-27.29,-27.77,0,*7F
1497045765.78,50649,20.94,74164.3,2.15,-27.61,-28.09,0,*74
1497045767.01,50650,20.94,74166.8,2.13,-27.29,-27.71,0,*76
1497045768.26,50651,20.94,74162.8,2.15,-27.39,-27.83,0,*7D
1497045769.49,50652,20.94,74162.8,2.15,-27.45,-27.93,0,*74
1497045770.71,50653,20.94,74162.8,2.15,-27.45,-27.93,0,*75
1497045771.97,50654,20.94,74164.8,2.13,-27.29,-27.83,0,*7F
1497045773.2,50655,20.94,74164.0,2.13,-27.29,-27.71,0,*73
1497045774.45,50656,20.94,74166.0,2.13,-27.51,-27.99,0,*79
1497045775.7,50657,20.94,74162.8,2.13,-27.51,-27.83,0,*73
1497045776.96,50658,20.94,74166.5,2.13,-27.45,-27.89,0,*73
1497045778.21,50659,20.94,74166.8,2.13,-27.45,-27.89,0,*72
1497045779.46,50660,20.94,74164.5,2.13,-27.45,-27.89,0,*78
1497045780.71,50661,20.94,74166.0,2.13,-27.35,-27.89,0,*7E
1497045781.94,50662,20.94,74166.3,2.13,-27.51,-27.89,0,*7F
1497045783.2,50663,20.94,74166.3,2.13,-27.67,-27.99,0,*7A
1497045784.45,50664,20.94,74164.0,2.13,-27.45,-27.89,0,*7C
1497045785.71,50665,20.94,74164.5,2.13,-27.51,-27.99,0,*79
1497045786.97,50666,20.94,74164.3,2.13,-27.61,-28.15,0,*72
1497045788.2,50667,20.94,74164.5,2.11,-27.51,-27.99,0,*79
1497045789.43,50668,20.94,74160.3,2.11,-27.35,-27.71,0,*72
1497045790.68,50669,20.94,74164.3,2.13,-27.45,-27.89,0,*71
1497045791.94,50670,20.94,74164.5,2.13,-27.67,-28.05,0,*72
1497045793.22,50671,20.94,74166.3,2.13,-27.61,-27.99,0,*7F
1497045794.49,50672,20.94,74164.5,2.11,-27.61,-28.05,0,*74
1497045795.74,50673,20.94,74166.8,2.13,-27.51,-28.05,0,*74
1497045797.03,50674,20.94,74166.8,2.13,-27.61,-28.05,0,*70
1497045798.27,50675,20.94,74160.8,2.11,-27.67,-28.05,0,*75
1497045799.5,50676,20.94,74166.3,2.11,-27.51,-27.99,0,*79
1497045800.7,50677,20.94,74162.8,2.11,-27.51,-27.89,0,*79
1497045801.93,50678,20.94,74164.8,2.11,-27.35,-27.71,0,*73
1497045803.16,50679,20.94,74166.0,2.11,-27.51,-27.99,0,*76
1497045804.42,50680,20.94,74162.8,2.11,-27.61,-27.99,0,*73
1497045805.65,50681,20.94,74162.0,2.11,-27.45,-27.89,0,*75
1497045806.91,50682,20.94,74162.8,2.11,-27.61,-27.99,0,*71
1497045808.14,50683,20.94,74166.8,2.07,-27.67,-28.09,0,*77
1497045809.36,50684,20.94,74162.0,2.07,-27.67,-28.09,0,*70
1497045810.59,50685,20.94,74162.5,2.07,-27.55,-28.09,0,*70
1497045811.82,50686,20.94,74164.0,2.07,-27.71,-28.05,0,*79
1497045813.01,50687,20.94,74162.3,2.07,-27.51,-27.93,0,*7A
1497045814.23,50688,20.94,74164.5,2.07,-27.51,-28.05,0,*75
1497045815.49,50689,20.94,74164.5,2.05,-27.55,-27.99,0,*78
1497045816.68,50690,20.94,74164.5,2.07,-27.55,-27.93,0,*78
1497045817.91,50691,20.94,74160.8,2.07,-27.51,-28.05,0,*7D
1497045819.16,50692,20.94,74164.8,2.05,-27.61,-27.93,0,*7F
1497045820.36,50693,20.94,74166.5,2.07,-27.51,-27.93,0,*7F
1497045821.58,50694,20.94,74166.3,2.07,-27.39,-27.89,0,*7D
1497045822.83,50695,20.94,74166.0,2.05,-27.55,-27.83,0,*7E
1497045824.08,50696,20.94,74166.5,2.05,-27.45,-27.93,0,*7D
1497045825.36,50697,20.94,74166.8,2.05,-27.39,-27.83,0,*76
1497045826.58,50698,20.94,74164.5,2.07,-27.39,-27.89,0,*71
1497045827.78,50699,20.94,74166.8,2.07,-27.55,-27.93,0,*71
1497045829.0,50700,20.94,74164.0,2.07,-27.39,-27.89,0,*71
1497045830.25,50701,20.94,74164.5,2.05,-27.45,-27.93,0,*72
1497045831.5,50702,20.94,74162.8,2.05,-27.45,-27.93,0,*71
1497045832.75,50703,20.94,74160.8,2.05,-27.39,-27.93,0,*7B
1497045834.0,50704,20.94,74164.3,2.05,-27.45,-27.93,0,*77
1497045835.25,50705,20.88,74160.0,2.05,-27.39,-27.93,0,*7D
1497045836.54,50706,20.94,74166.8,2.05,-27.61,-27.99,0,*79
1497045837.77,50707,20.94,74164.0,2.05,-27.55,-27.93,0,*75
1497045839.02,50708,20.94,74164.0,2.05,-27.55,-27.83,0,*7B
1497045840.21,50709,20.94,74166.0,2.07,-27.51,-27.89,0,*76
1497045841.44,50710,20.94,74166.0,2.07,-27.39,-27.89,0,*70
1497045842.69,50711,20.94,74166.3,2.05,-27.55,-27.83,0,*73
1497045843.91,50712,20.94,74164.3,2.05,-27.55,-27.93,0,*71
1497045845.19,50713,20.94,74160.5,2.05,-27.45,-27.83,0,*70
1497045846.41,50714,20.94,74164.0,2.05,-27.55,-27.93,0,*77
1497045847.66,50715,20.94,74164.5,2.05,-27.39,-27.93,0,*7C
1497045848.88,50716,20.94,74166.3,2.07,-27.35,-27.77,0,*7B
1497045850.1,50717,20.94,74166.3,2.07,-27.39,-27.89,0,*77
1497045851.33,50718,20.94,74166.3,2.03,-27.55,-27.83,0,*7C
1497045852.58,50719,20.94,74166.8,2.07,-27.35,-28.05,0,*7E
1497045853.83,50720,20.94,74160.8,2.05,-27.29,-27.83,0,*7A
1497045855.08,50721,20.94,74164.0,2.05,-27.39,-27.93,0,*7B
1497045856.36,50722,20.94,74166.0,2.05,-27.39,-27.83,0,*79
1497045857.61,50723,20.94,74164.5,2.05,-27.45,-27.93,0,*72
1497045858.84,50724,20.94,74166.3,2.05,-27.07,-27.71,0,*7F
1497045860.1,50725,20.94,74164.5,2.05,-27.29,-27.83,0,*7F
1497045861.34,50726,20.94,74162.8,2.05,-27.39,-27.93,0,*7C
1497045862.59,50727,20.94,74166.3,2.05,-27.39,-27.93,0,*7D
1497045863.84,50728,20.94,74162.0,2.05,-27.45,-27.93,0,*79
1497045865.07,50729,20.94,74166.8,2.07,-27.39,-27.77,0,*7B
1497045866.32,50730,20.94,74164.8,2.05,-27.45,-27.93,0,*70
1497045867.59,50731,20.94,74164.0,2.05,-27.39,-27.83,0,*7B
1497045868.82,50732,20.94,74166.5,2.07,-27.39,-27.89,0,*70
1497045870.04,50733,20.94,74166.8,2.07,-27.39,-27.89,0,*71
1497045871.26,50734,20.94,74166.3,2.07,-27.35,-27.71,0,*7D
1497045872.47,50735,20.94,74164.5,2.07,-27.35,-27.77,0,*7A
1497045873.72,50736,20.94,74164.0,2.05,-27.39,-27.93,0,*7D
1497045874.98,50737,20.94,74164.5,2.05,-27.55,-27.99,0,*7C
1497045876.23,50738,20.94,74166.3,2.05,-27.29,-27.83,0,*73
1497045877.51,50739,20.94,74162.0,2.05,-27.39,-27.83,0,*73
1497045878.73,50740,20.94,74164.0,2.07,-27.39,-27.89,0,*75
1497045880.01,50741,20.94,74164.3,2.05,-27.45,-27.83,0,*77
1497045881.26,50742,20.94,74166.8,2.05,-27.39,-27.93,0,*7E
1497045882.51,50743,20.94,74166.0,2.05,-27.39,-27.93,0,*7F
1497045883.73,50744,20.94,74164.5,2.07,-27.39,-27.77,0,*70
1497045884.95,50745,20.94,74166.5,2.07,-27.39,-27.93,0,*7B
1497045886.16,50746,20.94,74164.5,2.07,-27.35,-27.77,0,*7E
1497045887.38,50747,20.94,74166.3,2.07,-27.35,-27.77,0,*7F
1497045888.6,50748,20.94,74164.5,2.07,-27.39,-27.89,0,*7D
1497045889.82,50749,20.94,74166.0,2.07,-27.35,-27.89,0,*70
1497045891.05,50750,20.94,74164.5,2.07,-27.39,-27.93,0,*7F
1497045892.26,50751,20.94,74170.0,2.07,-27.39,-27.77,0,*74
1497045893.49,50752,20.94,74164.8,2.07,-27.23,-27.89,0,*7D
1497045894.71,50753,20.94,74166.0,2.07,-27.39,-27.77,0,*76
1497045895.92,50754,20.94,74164.5,2.07,-27.35,-27.77,0,*7D
1497045897.16,50755,20.94,74164.8,2.11,-27.29,-27.83,0,*7D
1497045898.38,50756,20.94,74166.0,2.11,-27.35,-27.89,0,*79
1497045899.63,50757,20.94,74164.0,2.11,-27.35,-27.83,0,*72
1497045900.85,50758,20.94,74166.5,2.07,-27.19,-27.67,0,*7E
1497045902.07,50759,20.94,74166.8,2.11,-27.19,-27.67,0,*78
1497045903.3,50760,20.94,74166.8,2.07,-27.39,-27.93,0,*7C
1497045904.52,50761,20.94,74164.5,2.07,-27.39,-27.89,0,*76
1497045905.77,50762,20.94,74166.0,2.11,-27.35,-27.83,0,*74
1497045907.02,50763,20.94,74166.5,2.11,-27.35,-27.83,0,*75
1497045908.29,50764,20.94,74166.8,2.13,-27.35,-27.83,0,*70
1497045909.54,50765,20.94,74166.8,2.11,-27.35,-27.83,0,*73
1497045910.76,50766,20.94,74166.8,2.11,-27.35,-27.71,0,*7D
1497045912.03,50767,20.94,74164.0,2.13,-27.35,-27.83,0,*73
1497045913.26,50768,20.94,74166.5,2.11,-27.35,-27.71,0,*73
1497045914.49,50769,20.94,74166.5,2.11,-27.45,-27.89,0,*72
1497045915.74,50770,20.94,74164.5,2.13,-27.19,-27.67,0,*71
1497045916.96,50771,20.94,74168.8,2.11,-27.35,-27.89,0,*7C
1497045918.18,50772,20.94,74168.0,2.11,-27.19,-27.71,0,*76
1497045919.43,50773,20.94,74166.8,2.13,-27.35,-27.71,0,*7B
1497045920.68,50774,20.88,74160.3,2.11,-27.35,-27.83,0,*73
1497045921.88,50775,20.94,74164.5,2.15,-27.29,-27.77,0,*70
1497045923.16,50776,20.94,74164.5,2.13,-27.35,-27.83,0,*73
1497045924.36,50777,20.88,74162.5,2.15,-27.29,-27.77,0,*72
1497045925.59,50778,20.94,74164.5,2.13,-27.29,-27.67,0,*7A
1497045926.85,50779,20.94,74166.5,2.13,-27.13,-27.61,0,*74
1497045928.08,50780,20.94,74164.5,2.13,-27.29,-27.67,0,*7D
1497045929.31,50781,20.94,74162.8,2.15,-27.23,-27.67,0,*70
1497045930.51,50782,20.88,74162.8,2.15,-27.13,-27.67,0,*70
1497045931.74,50783,20.94,74166.3,2.15,-27.29,-27.83,0,*72
1497045933.01,50784,20.94,74164.5,2.13,-27.45,-27.83,0,*79
1497045934.25,50785,20.94,74166.8,2.13,-27.29,-27.71,0,*7F
1497045935.47,50786,20.94,74166.3,2.15,-27.39,-27.77,0,*7D
1497045936.7,50787,20.94,74166.5,2.15,-27.29,-27.83,0,*76
1497045937.95,50788,20.88,74160.8,2.15,-27.39,-27.83,0,*78
1497045939.17,50789,20.94,74162.5,2.15,-27.29,-27.83,0,*78
1497045940.4,50790,20.94,74166.3,2.15,-27.39,-27.93,0,*70
1497045941.65,50791,20.94,74164.3,2.15,-27.39,-27.83,0,*70
1497045942.87,50792,20.94,74166.0,2.15,-27.39,-27.93,0,*72
1497045944.14,50793,20.94,74168.0,2.17,-27.39,-27.83,0,*70
1497045945.37,50794,20.94,74164.3,2.15,-27.39,-27.93,0,*74
1497045946.62,50795,20.94,74162.8,2.15,-27.39,-27.83,0,*74
1497045947.89,50796,20.88,74160.8,2.17,-27.23,-27.83,0,*7E
1497045949.11,50797,20.94,74164.8,2.15,-27.45,-27.93,0,*7C
1497045950.39,50798,20.94,74166.8,2.17,-27.39,-27.83,0,*7B
1497045951.67,50799,20.94,74166.3,2.17,-27.45,-27.83,0,*71
1497045952.92,50800,20.94,74162.8,2.15,-27.39,-27.83,0,*77
1497045954.17,50801,20.94,74166.0,2.17,-27.23,-27.77,0,*74
1497045955.42,50802,20.94,74166.5,2.17,-27.39,-27.93,0,*76
1497045956.67,50803,20.94,74166.0,2.17,-27.45,-27.93,0,*7C
1497045957.92,50804,20.94,74166.5,2.17,-27.39,-27.93,0,*70
1497045959.13,50805,20.88,74162.8,2.15,-27.29,-27.67,0,*79
1497045960.37,50806,20.94,74166.3,2.17,-27.23,-27.77,0,*73
1497045961.62,50807,20.94,74164.5,2.17,-27.45,-27.93,0,*78
1497045962.88,50808,20.94,74166.3,2.17,-27.45,-27.93,0,*77
1497045964.1,50809,20.94,74166.5,2.19,-27.35,-27.77,0,*75
1497045965.31,50810,20.94,74164.8,2.19,-27.35,-27.77,0,*7D
1497045966.53,50811,20.94,74168.8,2.19,-27.35,-27.93,0,*76
1497045967.76,50812,20.94,74166.5,2.19,-27.39,-27.89,0,*72
1497045968.98,50813,20.94,74164.8,2.19,-27.23,-27.71,0,*7F
1497045970.22,50814,20.94,74166.5,2.21,-27.13,-27.67,0,*77
1497045971.47,50815,20.94,74168.0,2.19,-27.23,-27.61,0,*78
1497045972.67,50816,20.94,74166.5,2.19,-27.51,-27.89,0,*78
1497045973.9,50817,20.88,74164.0,2.21,-27.29,-27.71,0,*7A
1497045975.1,50818,20.94,74166.0,2.19,-27.51,-27.93,0,*7D
1497045976.38,50819,20.94,74164.3,2.21,-27.35,-27.99,0,*7F
1497045977.6,50820,20.88,74164.0,2.19,-27.55,-28.09,0,*7E
1497045978.83,50821,20.94,74164.3,2.19,-27.51,-27.99,0,*7D
1497045980.07,50822,20.94,74164.8,2.21,-26.87,-27.45,0,*7E
1497045981.27,50823,20.94,74164.0,2.19,-27.03,-27.55,0,*78
1497045982.52,50824,20.94,74166.5,2.21,-27.19,-27.71,0,*79
1497045983.78,50825,20.94,74166.3,2.21,-27.51,-27.99,0,*72
1497045985.01,50826,20.88,74160.5,2.23,-27.29,-27.83,0,*77
1497045986.24,50827,20.94,74166.8,2.21,-27.29,-27.71,0,*79
1497045987.51,50828,20.94,74164.8,2.21,-27.19,-27.83,0,*78
1497045988.74,50829,20.94,74166.0,2.23,-27.55,-27.99,0,*78
1497045989.97,50830,20.94,74164.0,2.23,-27.51,-28.05,0,*7E
1497045991.17,50831,20.94,74164.3,2.23,-27.55,-28.15,0,*7A
1497045992.41,50832,20.94,74166.0,2.21,-27.67,-28.15,0,*7A
1497045993.66,50833,20.88,74164.0,2.21,-27.51,-27.99,0,*75
1497045994.95,50834,20.94,74166.5,2.21,-27.45,-28.05,0,*7D
1497045996.18,50835,20.94,74166.0,2.19,-27.51,-28.05,0,*72
1497045997.43,50836,20.94,74164.0,2.25,-27.23,-27.67,0,*70
1497045998.64,50837,20.94,74166.0,2.23,-27.29,-27.71,0,*7A
1497045999.87,50838,20.94,74166.5,2.25,-27.29,-27.67,0,*74
1497046001.12,50839,20.94,74164.3,2.23,-27.45,-27.99,0,*78
1497046002.35,50840,20.94,74168.5,2.23,-27.55,-28.05,0,*7D
1497046003.6,50841,20.94,74166.3,2.23,-27.45,-27.83,0,*7C
1497046004.83,50842,20.94,74164.3,2.23,-27.29,-27.83,0,*75
1497046006.08,50843,20.94,74168.5,2.23,-27.35,-27.83,0,*79
1497046007.3,50844,20.94,74164.0,2.23,-27.35,-27.71,0,*73
1497046008.55,50845,20.94,74164.8,2.25,-26.93,-27.51,0,*7B
1497046009.76,50846,20.88,74162.3,2.23,-27.29,-27.71,0,*7C
1497046010.99,50847,20.94,74166.5,2.23,-27.51,-28.05,0,*7E
1497046012.27,50848,20.94,74166.3,2.25,-27.45,-27.99,0,*78
1497046013.52,50849,20.88,74166.3,2.25,-27.45,-27.93,0,*73
1497046014.75,50850,20.94,74164.8,2.23,-27.55,-27.99,0,*76
1497046015.94,50851,20.94,74168.8,2.23,-27.51,-27.93,0,*79
1497046017.19,50852,20.94,74166.3,2.25,-27.51,-28.09,0,*70
1497046018.42,50853,20.94,74170.0,2.23,-27.55,-28.05,0,*7F
1497046019.69,50854,20.88,74166.5,2.25,-27.61,-28.15,0,*78
1497046020.97,50855,20.94,74164.3,2.25,-27.45,-27.99,0,*74
1497046022.17,50856,20.94,74164.0,2.23,-27.55,-28.15,0,*7B
1497046023.44,50857,20.88,74166.5,2.25,-27.61,-28.15,0,*7B
1497046024.67,50858,20.88,74164.0,2.23,-27.67,-28.21,0,*73
1497046025.92,50859,20.88,74166.3,2.25,-27.45,-27.93,0,*72
1497046027.17,50860,20.94,74164.8,2.23,-27.45,-27.99,0,*74
1497046028.45,50861,20.88,74166.5,2.25,-27.23,-27.83,0,*78
1497046029.7,50862,20.88,74166.5,2.25,-27.39,-27.77,0,*7B
1497046030.95,50863,20.94,74166.5,2.25,-27.45,-27.93,0,*7B
1497046032.21,50864,20.88,74166.0,2.25,-27.29,-27.83,0,*77
1497046033.48,50865,20.94,74164.3,2.25,-27.45,-27.83,0,*7C
1497046034.71,50866,20.88,74166.8,2.27,-27.23,-27.77,0,*76
1497046035.96,50867,20.94,74164.5,2.25,-27.45,-27.93,0,*7F
1497046037.24,50868,20.88,74166.5,2.25,-27.39,-27.99,0,*71
1497046038.47,50869,20.88,74164.0,2.23,-27.51,-27.99,0,*78
1497046039.72,50870,20.88,74164.3,2.25,-27.51,-28.25,0,*7E
1497046040.93,50871,20.88,74164.8,2.23,-27.71,-28.15,0,*78
1497046042.15,50872,20.94,74168.8,2.23,-27.39,-27.93,0,*76
1497046043.43,50873,20.88,74164.3,2.25,-27.61,-27.99,0,*76
1497046044.69,50874,20.94,74170.0,2.25,-27.29,-27.83,0,*76
1497046045.98,50875,20.88,74164.8,2.25,-27.61,-28.09,0,*76
1497046047.23,50876,20.88,74162.3,2.25,-27.29,-27.83,0,*74
1497046048.46,50877,20.94,74164.8,2.23,-27.35,-27.89,0,*74
1497046049.71,50878,20.88,74166.3,2.25,-27.29,-27.83,0,*7A
1497046050.99,50879,20.88,74166.5,2.25,-27.45,-27.83,0,*71
1497046052.27,50880,20.88,74166.3,2.25,-27.39,-27.83,0,*7C
1497046053.52,50881,20.88,74166.0,2.25,-27.39,-27.93,0,*7C
1497046054.79,50882,20.94,74164.0,2.25,-27.23,-27.61,0,*79
1497046056.05,50883,20.88,74166.0,2.23,-27.45,-28.05,0,*73
1497046057.28,50884,20.94,74166.8,2.23,-27.55,-28.05,0,*75
1497046058.53,50885,20.94,74166.8,2.25,-27.51,-28.09,0,*7A
1497046059.76,50886,20.88,74164.3,2.23,-27.67,-28.05,0,*76
1497046061.01,50887,20.88,74164.3,2.25,-27.51,-28.09,0,*78
1497046062.27,50888,20.94,74166.3,2.25,-27.61,-28.15,0,*79
1497046063.51,50889,20.94,74168.0,2.25,-27.77,-28.15,0,*7F
1497046064.79,50890,20.88,74164.5,2.25,-27.61,-28.09,0,*7D
1497046066.04,50891,20.88,74166.5,2.25,-27.51,-28.09,0,*7F
1497046067.28,50892,20.88,74164.0,2.23,-27.67,-28.21,0,*75
1497046068.5,50893,20.94,74166.3,2.23,-27.51,-27.99,0,*7D
1497046069.73,50894,20.88,74164.0,2.27,-27.45,-27.93,0,*71
1497046070.98,50895,20.94,74166.5,2.25,-27.45,-27.93,0,*72
1497046072.24,50896,20.88,74164.0,2.25,-27.29,-27.83,0,*7A
1497046073.46,50897,20.94,74166.3,2.23,-27.45,-27.71,0,*7A
1497046074.71,50898,20.94,74166.5,2.23,-27.35,-27.83,0,*7F
1497046075.94,50899,20.88,74164.5,2.23,-27.45,-27.89,0,*73
1497046077.21,50900,20.88,74164.3,2.25,-27.39,-27.83,0,*75
1497046078.49,50901,20.88,74164.8,2.25,-27.39,-27.83,0,*74
1497046079.72,50902,20.88,74164.5,2.25,-27.07,-27.51,0,*75
1497046080.95,50903,20.88,74166.3,2.25,-27.29,-27.77,0,*7C
1497046082.23,50904,20.88,74164.8,2.25,-27.61,-28.09,0,*71
1497046083.51,50905,20.88,74164.0,2.25,-27.39,-27.83,0,*70
1497046084.76,50906,20.88,74164.8,2.25,-27.45,-27.77,0,*73
1497046086.05,50907,20.88,74164.3,2.25,-27.61,-27.99,0,*74
1497046087.3,50908,20.88,74166.0,2.25,-27.51,-27.99,0,*78
1497046088.59,50909,20.94,74168.0,2.25,-27.61,-28.25,0,*72
1497046089.82,50910,20.88,74168.3,2.25,-27.77,-28.15,0,*7E
1497046091.08,50911,20.94,74168.3,2.25,-27.51,-27.99,0,*70
1497046092.31,50912,20.94,74168.3,2.23,-27.67,-28.05,0,*7A
1497046093.57,50913,20.88,74166.5,2.25,-27.77,-28.25,0,*7E
1497046094.82,50914,20.94,74166.5,2.25,-27.51,-28.09,0,*73
1497046096.07,50915,20.88,74164.0,2.25,-27.51,-27.99,0,*74
1497046097.3,50916,20.88,74164.3,2.25,-27.51,-28.15,0,*7C
1497046098.54,50917,20.94,74166.8,2.25,-27.67,-28.15,0,*78
1497046099.76,50918,20.88,74166.0,2.23,-27.19,-27.71,0,*75
1497046100.98,50919,20.94,74168.8,2.23,-27.51,-28.05,0,*74
1497046102.23,50920,20.94,74168.0,2.25,-27.45,-27.93,0,*7D
1497046103.46,50921,20.94,74168.0,2.23,-27.55,-28.05,0,*7B
1497046104.69,50922,20.88,74164.3,2.23,-27.51,-27.99,0,*76